Lid_Strength_Index
0 1 1 1 1 2 1 2 2 2 3 3 4 5 5 5 5 5 5 5 5 5 5 4 4 4 6 10 11 6 4 4 7 8 9 9 10 11 12 12 11 12 11 10 10 10 10
0 1 1 1 1 1 1 2 2 2 3 3 4 4 5 5 5 5 5 5 4 5 5 4 4 5 8 12 7 5 5 7 7 8 9 9 10 10 11 11 11 10 10 10 9 9 9
-0 0 1 1 1 1 1 2 2 2 2 3 3 4 5 5 5 5 5 5 5 4 4 4 4 6 9 10 5 5 6 7 7 8 9 8 9 10 10 11 10 10 12 9 9 9 10
1 1 -0 1 1 1 2 2 2 2 3 3 4 4 5 6 6 6 5 5 5 4 4 4 4 6 10 6 4 5 6 7 7 7 8 8 8 10 11 9 10 11 11 13 10 9 10
1 1 1 1 1 1 2 2 2 2 2 3 3 4 5 6 6 6 5 5 4 4 3 3 5 6 10 5 7 7 6 8 7 7 7 8 9 10 10 11 12 12 14 12 11 9 10
2 2 1 -0 1 0 1 1 2 2 2 3 3 4 5 6 6 6 5 5 3 3 4 4 5 8 9 10 8 8 6 7 9 9 9 10 9 10 10 11 14 13 13 12 12 9 10
2 2 2 2 1 0 -0 0 2 2 2 3 4 4 5 6 6 6 6 5 8 9 7 10 10 11 10 8 8 8 7 8 8 9 11 10 11 11 11 10 11 12 13 13 10 9 10
1 1 2 2 1 1 1 -0 1 2 2 2 3 4 5 6 6 6 6 10 9 8 12 10 10 10 9 9 10 9 7 9 10 11 11 10 11 10 9 10 11 11 12 11 9 9 9
2 1 1 1 2 2 1 1 0 1 1 2 3 3 5 6 6 8 7 9 7 6 11 11 10 10 10 9 11 10 8 9 10 11 10 11 10 9 10 10 11 10 11 10 11 9 7
1 1 1 1 1 1 1 1 0 -0 1 2 3 4 4 5 7 7 8 6 6 6 12 12 12 11 10 10 12 8 8 9 9 11 10 9 9 10 10 10 9 11 9 10 10 10 13
1 0 0 0 0 1 1 1 1 -1 1 2 3 4 5 5 7 9 8 6 6 6 19 12 12 8 9 11 10 10 7 8 10 10 9 10 10 10 10 9 8 10 8 9 9 11 11
0 -0 -0 -0 -0 0 1 0 -0 -1 0 2 3 3 5 6 7 7 6 6 6 14 19 14 12 12 12 12 11 10 9 7 7 9 8 9 7 8 8 7 7 7 8 9 9 11 15
0 -0 -0 -0 -1 -0 0 1 0 -1 -1 1 2 3 5 5 7 5 4 7 15 16 12 15 14 12 13 13 13 12 11 11 10 12 12 10 9 8 7 9 7 8 11 15 16 17 15
-0 -0 -0 -0 -0 -1 -1 -0 0 -1 -1 0 3 4 5 5 5 5 5 11 18 13 14 12 13 13 14 13 13 13 12 12 10 11 12 13 13 9 7 9 10 10 11 15 21 18 16
0 0 0 0 0 -0 -1 -0 -0 -1 -1 1 3 5 6 5 5 5 9 15 15 11 12 13 14 15 15 14 13 13 12 12 10 10 14 13 14 8 7 6 8 10 12 9 15 14 17
0 0 0 0 0 0 -0 0 -0 -0 -1 2 5 7 7 5 4 7 11 14 12 12 11 12 15 14 16 15 15 14 12 10 11 10 9 11 16 9 8 7 7 9 8 14 15 20 20
0 0 1 1 1 0 -1 -0 -1 -0 1 2 6 9 7 4 5 11 14 13 12 11 10 13 14 15 15 15 14 13 12 10 10 10 9 10 12 11 8 10 10 10 12 12 13 14 19
1 1 1 1 0 -0 -1 -1 -1 -1 1 3 7 11 7 5 13 11 12 11 10 11 10 11 12 13 14 14 14 13 12 11 9 10 11 10 11 14 11 8 7 8 11 12 17 16 15
1 1 1 1 0 0 -1 -1 -1 -1 1 5 8 11 6 6 15 13 11 11 11 11 12 12 13 12 13 13 14 12 11 9 9 10 10 9 12 15 12 10 8 11 11 11 12 14 17
1 1 1 1 1 0 0 -0 -1 -1 1 2 8 13 10 9 7 10 11 13 12 10 11 11 13 12 13 13 11 13 12 10 9 10 10 8 11 14 16 15 12 14 13 12 13 17 16
1 2 2 1 1 1 1 1 0 -0 1 2 7 9 8 13 12 10 10 12 12 14 11 11 13 13 13 14 12 13 11 11 10 9 8 9 13 12 12 12 12 13 14 13 14 13 15
2 2 1 1 2 2 3 2 1 1 0 3 9 9 7 8 10 11 11 12 13 12 12 13 14 12 10 12 12 13 11 11 12 9 10 8 13 13 14 12 12 14 14 13 13 13 15
3 2 2 2 2 2 3 2 1 1 1 4 6 5 7 10 11 11 11 11 12 11 12 11 11 12 11 10 9 9 9 9 10 11 11 10 12 13 15 13 12 15 15 14 14 13 13
4 2 1 1 1 1 3 2 1 1 1 3 5 6 8 12 11 11 11 10 11 11 13 12 10 10 9 7 8 8 9 9 9 9 8 11 12 12 14 14 19 14 11 12 14 14 13
5 2 1 1 2 3 4 3 1 1 2 4 5 5 7 12 11 11 11 11 11 11 12 11 10 8 7 8 11 11 11 11 10 8 8 8 11 13 16 16 14 13 13 13 14 15 13
5 3 2 2 2 3 2 2 2 3 4 6 6 4 6 10 12 10 11 11 13 13 12 11 8 6 7 10 11 14 14 12 13 12 8 8 9 12 13 17 19 14 12 11 11 16 13
5 4 3 3 3 3 3 3 3 3 4 5 8 6 7 11 10 9 12 12 10 11 12 10 9 9 8 10 12 13 13 10 13 13 14 12 12 14 14 15 14 13 12 10 16 16 12
5 5 5 4 4 4 4 4 5 5 6 6 8 7 7 10 10 9 9 11 10 10 11 9 10 10 10 12 12 12 12 11 12 10 11 11 13 14 13 15 17 11 11 13 13 11 11
5 5 5 5 5 5 5 5 5 5 6 5 8 8 5 8 10 7 8 7 7 7 8 8 9 9 9 10 10 10 11 10 10 14 8 13 10 11 12 13 11 10 11 10 10 11 11